Location: Be Tobo
(6.6442°N, 10.6239°W)
Time: 00:45:44
(UTC+00:00)

Cosmos 2298 Rocket - Pass Details

Date: 18 September 2020
Orbit: 776 x 783 km, 74.0° (Epoch: 21 October)

Event Time Altitude Azimuth Distance (km) Brightness Sun altitude
Rises 19:44:59 0° 195° (SSW) 3,260 7.4 -16.9°
Reaches altitude 10° 19:47:22 10° 196° (SSW) 2,332 6.7 -17.4°
Maximum altitude 19:52:40 78° 282° (WNW) 802 4.1 -18.8°
Drops below altitude 10° 19:57:58 10° 9° (N) 2,330 6.4 -20.1°
Sets 20:00:21 0° 10° (N) 3,257 7.2 -20.7°
